Location: Piotrkow Trybunalski
(51.4000°N, 19.6830°E)
Time: 06:27:01
(UTC+02:00)

STRAND 1 - Pass Details

Date: 24 February 2024
Orbit: 764 x 779 km, 98.4° (Epoch: 24 April)

Event Time Altitude Azimuth Distance (km) Brightness Sun altitude
Rises 04:33:03 0° 148° (SSE) 3,252 ? -20.2°
Reaches altitude 10° 04:35:23 10° 143° (SE) 2,329 ? -19.9°
Maximum altitude 04:40:22 53° 68° (ENE) 958 ? -19.1°
Drops below altitude 10° 04:45:23 10° 353° (N) 2,346 ? -18.3°
Sets 04:47:45 0° 349° (N) 3,277 ? -17.9°
